Miscellaneous Local Product
Issued by NWS Hastings, NE

Home | Current Version | Previous Version | Text Only | Print | Product List | Glossary On
Versions: 1 2 3 4 5 6 7 8 9 10 11 12 13 14 15 16 17 18 19 20 21 22 23 24 25 26 27 28 29 30 31 32 33 34 35 36 37 38 39 40 41 42 43 44 45 46 47 48 49 50
000
AXUS43 KGID 300502
MISGRI

GID CWA HOURLY WEATHER ROUNDUP
NATIONAL WEATHER SERVICE HASTINGS NE
1200 AM CDT SUN AUG 30 2015

NOTE: "FAIR" INDICATES FEW OR NO CLOUDS BELOW 12,000 FEET WITH NO
SIGNIFICANT WEATHER AND/OR OBSTRUCTIONS TO VISIBILITY.

...SOUTH CENTRAL NEBRASKA...

CITY           SKY/WX    TMP DP  RH WIND       PRES   REMARKS
GRAND ISLAND   CLEAR     65  63  93 S10       30.06F
HASTINGS       CLEAR     65  62  90 S9        30.06F
KEARNEY        CLEAR     63  57  82 S8        30.06S
ORD            CLEAR     60  58  92 CALM      30.03S
YORK           MOCLDY    63  61  94 S5        30.07S
AURORA         CLEAR     62  62 100 S6        30.06F FOG
LEXINGTON      CLEAR     64  58  82 SE5       30.06S
HOLDREGE       CLEAR     63  58  82 S7        30.07S
HEBRON         CLEAR     61  58  91 CALM      30.07S

...NEBRASKA PANHANDLE...

CITY           SKY/WX    TMP DP  RH WIND       PRES   REMARKS
CHADRON        PTCLDY    80  41  24 S21       29.95F
ALLIANCE       CLEAR     67  47  48 S14       30.04S
SCOTTSBLUFF    CLEAR     64  48  56 E9        30.04S
SIDNEY         CLEAR     68  43  40 S12       30.11S

...WESTERN AND NORTH CENTRAL NEBRASKA...

CITY           SKY/WX    TMP DP  RH WIND       PRES   REMARKS
VALENTINE      CLEAR     73  59  61 S14       29.98S
AINSWORTH      CLEAR     70  62  75 S13       30.01S
ONEILL         CLOUDY    67  65  93 S7        30.01S
BROKEN BOW     CLEAR     64  61  90 CALM      30.05S
IMPERIAL       CLEAR     66  50  56 S7        30.08S
NORTH PLATTE   CLEAR     69  57  65 S8        30.06R
MCCOOK         CLEAR     67  53  61 S10       30.06F

...EASTERN NEBRASKA...

CITY           SKY/WX    TMP DP  RH WIND       PRES   REMARKS
NORFOLK        CLEAR     63  62  97 SE8       30.04S
TEKAMAH        CLOUDY    63  62  97 S5        30.05S
COLUMBUS       CLEAR    N/A N/A N/A S5        30.06R
ALBION         CLEAR     64  61  91 SE5       30.05S
OMAHA EPPLEY   CLOUDY    68  64  87 SE5       30.05S
OFFUTT AFB     CLOUDY    66  64  93 CALM      30.04F
MILLARD        CLOUDY    66  63  90 SE3       30.05F
LINCOLN        CLOUDY    64  61  90 S8        30.07S
NEBRASKA CITY  CLEAR     61  60  99 SW5       30.06S
BEATRICE       CLOUDY    63  61  93 CALM      30.06S
FALLS CITY     CLEAR     60  59  96 CALM      30.05S

...NORTHERN KANSAS...

CITY           SKY/WX    TMP DP  RH WIND       PRES   REMARKS
GOODLAND       CLEAR     64  49  57 S10       30.13S
HILL CITY      CLEAR     60  55  83 CALM      30.08S
NORTON         CLEAR     64  55  72 SE6       30.07S
PHILLIPSBURG   CLEAR     64  63  94 CALM      30.07S
SMITH CENTER   CLEAR     63  61  94 SE7       30.07F
HAYS           CLEAR     63  54  72 SE3       30.07F
RUSSELL        CLEAR     62  60  93 SE8       30.06S
CONCORDIA      CLEAR     59  58  96 SE5       30.07S
SALINA         CLEAR     65  61  87 NE3       30.06S
TOPEKA         MOCLDY    67  64  90 CALM      30.06S



USA.gov is the U.S. government's official web portal to all federal, state and local government web resources and services.